Big Delta, AK

7:57 AM AKST on December 12, 2017 (GMT -0900)
Allen Army Air Field

Weather History for PABI - October, 2013

Change the Weather History Date:

Saturday, October 12, 2013

  Actual Average Record
Temperature  
Mean Temperature 42 °F -  
Max Temperature 52 °F 30 °F 52 °F (2013)
Min Temperature 33 °F 17 °F 3 °F (1997)
Degree Days  
Heating Degree Days 22    
Moisture  
Dew Point 28 °F    
Average Humidity 48    
Maximum Humidity 60    
Minimum Humidity 32    
Precipitation  
Precipitation 0.00 in - - ()
Sea Level Pressure  
Sea Level Pressure 29.80 in    
Wind  
Wind Speed 18 mph (SE)    
Max Wind Speed 30 mph    
Max Gust Speed 53 mph    
Visibility 10 miles    
Events      
Averages and records for this station are not official NWS values.
T = Trace of Precipitation, MM = Missing Value Source: NWS Daily Summary

Daily Weather History Graph

Daily Weather History Graph

Search for Another Location

Airport or City:

Trip Planner

Search our weather history database for the weather conditions in past years. The results will help you decide how hot, cold, wet, or windy it might be!

Date:

Astronomy

Oct. 12, 2013 Rise Set
Actual Time 8:25 AM AKDT 6:31 PM AKDT
Civil Twilight 7:36 AM AKDT 7:19 PM AKDT
Nautical Twilight 6:42 AM AKDT 8:14 PM AKDT
Astronomical Twilight 5:45 AM AKDT 9:10 PM AKDT
Moon 4:42 PM AKDT No Moon Set
Length of Visible Light 11h 42m
Length of Day
10h 06m
First Quarter, 60% of the Moon is Illuminated
Oct 12
First Quarter
Oct 18
Full
Oct 26
Last Quarter
Nov 3
New
Nov 9
First Quarter

Hourly Weather History & Observations

Time (AKDT) Temp. Windchill Dew Point Humidity Pressure Visibility Wind Dir Wind Speed Gust Speed Precip Events Conditions
12:53 AM 46.0 °F 37.8 °F 28.0 °F 50% 29.84 in 10.0 mi SSE 23.0 mph 38.0 mph N/A   Clear
1:53 AM 46.0 °F 39.0 °F 28.0 °F 50% 29.83 in 10.0 mi SSE 17.3 mph 27.6 mph N/A   Clear
2:53 AM 46.0 °F 37.8 °F 28.0 °F 50% 29.82 in 10.0 mi South 23.0 mph 36.8 mph N/A   Clear
3:53 AM 41.0 °F 33.5 °F 28.0 °F 60% 29.81 in 10.0 mi SE 13.8 mph 18.4 mph N/A   Clear
4:53 AM 44.1 °F 38.1 °F 28.0 °F 53% 29.80 in 10.0 mi SE 11.5 mph 23.0 mph N/A   Partly Cloudy
5:53 AM 42.1 °F 36.6 °F 27.0 °F 55% 29.80 in 10.0 mi SE 9.2 mph - N/A   Overcast
6:53 AM 42.1 °F 36.1 °F 27.0 °F 55% 29.80 in 10.0 mi ESE 10.4 mph - N/A   Overcast
7:53 AM 44.1 °F 41.5 °F 27.0 °F 51% 29.80 in 10.0 mi Variable 4.6 mph - N/A   Overcast
8:53 AM 43.0 °F - 27.0 °F 53% 29.81 in - North - - N/A   Overcast
9:53 AM 41.0 °F 34.7 °F 27.0 °F 57% 29.81 in 10.0 mi ENE 10.4 mph - N/A   Overcast
10:53 AM 46.0 °F 40.6 °F 28.0 °F 50% 29.80 in 10.0 mi SE 11.5 mph - N/A   Mostly Cloudy
11:53 AM 46.0 °F 41.4 °F 28.9 °F 51% 29.80 in 10.0 mi SE 9.2 mph 19.6 mph N/A   Mostly Cloudy
12:48 PM 48.2 °F - 28.4 °F 46% 29.76 in 10.0 mi South 23.0 mph 36.8 mph N/A   Mostly Cloudy
12:53 PM 50.0 °F - 28.9 °F 44% 29.79 in 10.0 mi South 26.5 mph 36.8 mph N/A   Mostly Cloudy
1:53 PM 51.1 °F - 28.9 °F 43% 29.80 in 10.0 mi SSE 16.1 mph 32.2 mph N/A   Mostly Cloudy
2:53 PM 51.1 °F - 28.9 °F 43% 29.79 in 10.0 mi South 27.6 mph 40.3 mph N/A   Mostly Cloudy
3:53 PM 50.0 °F - 28.9 °F 44% 29.80 in 10.0 mi SSE 26.5 mph 41.4 mph N/A   Mostly Cloudy
4:53 PM 50.0 °F - 28.0 °F 43% 29.80 in 10.0 mi SSE 25.3 mph 40.3 mph N/A   Mostly Cloudy
5:53 PM 50.0 °F - 28.9 °F 44% 29.80 in 10.0 mi South 26.5 mph 38.0 mph N/A   Mostly Cloudy
6:53 PM 50.0 °F - 28.9 °F 44% 29.81 in 10.0 mi South 29.9 mph 52.9 mph N/A   Mostly Cloudy
7:53 PM 50.0 °F - 28.0 °F 43% 29.79 in 10.0 mi SSE 26.5 mph 36.8 mph N/A   Mostly Cloudy
8:53 PM 48.9 °F - 28.0 °F 44% 29.79 in 10.0 mi SE 12.7 mph 26.5 mph N/A   Overcast
9:53 PM 44.1 °F 38.6 °F 28.0 °F 53% 29.80 in 10.0 mi ESE 10.4 mph - N/A   Clear
10:53 PM 43.0 °F 36.0 °F 28.0 °F 56% 29.78 in 10.0 mi SE 13.8 mph - N/A   Clear
11:53 PM 45.0 °F 36.4 °F 27.0 °F 49% 29.76 in 10.0 mi ESE 23.0 mph 28.8 mph N/A   Clear